Location: Asheville, NC
(35.6000°N, 82.5500°W)
Time: 17:27:05
(UTC-04:00)

CUBEBUG 2 - Pass Details

Date: 06 January 2018
Orbit: 585 x 700 km, 97.6° (Epoch: 21 July)

Event Time Altitude Azimuth Distance (km) Brightness Sun altitude
Rises 19:42:21 0° 191° (S) 2,795 ? -25.8°
Reaches altitude 10° 19:44:41 10° 202° (SSW) 1,906 ? -26.3°
Maximum altitude 19:48:18 30° 263° (W) 1,085 ? -27.0°
Drops below altitude 10° 19:52:02 10° 325° (NW) 1,955 ? -27.8°
Sets 19:54:28 0° 337° (NNW) 2,881 ? -28.2°
